Probability
0 0 0 0 0 0 0 0 0 0 0 0 0 0 0 0 0 0 0 0 0 0 0 0 26 19 6 0 0 0 0 0 0 0 0 0 0 0 0 0 0 0 0 0 0 0 0 0 0
0 0 0 0 0 0 0 0 0 0 0 0 0 0 0 0 0 0 0 0 0 0 0 0 23 19 6 0 0 0 0 0 0 0 0 0 0 0 0 0 0 0 0 0 0 0 0 0 0
0 0 0 0 0 0 0 0 0 0 0 0 0 0 0 0 0 0 0 0 0 0 0 0 45 16 6 0 0 0 0 0 0 0 0 0 0 0 0 0 0 0 0 0 0 0 0 0 0
0 0 0 0 0 0 0 0 0 0 0 0 0 0 0 0 0 0 0 0 0 0 0 0 42 19 6 0 0 0 0 0 0 0 0 0 0 0 0 0 0 0 0 0 0 0 0 0 0
0 0 0 0 0 0 0 0 0 0 0 0 0 0 0 0 0 0 0 0 0 0 0 0 16 29 3 0 0 0 0 0 0 0 0 0 0 0 0 0 0 0 0 0 0 0 0 0 0
0 0 0 0 0 0 0 0 0 0 0 0 0 0 0 0 0 0 0 0 0 0 0 0 3 19 26 0 0 0 0 0 0 0 0 0 0 0 0 0 0 0 0 0 0 0 0 0 0
0 0 0 0 0 0 0 0 0 0 0 0 0 0 0 0 0 0 0 0 0 0 0 0 0 0 3 3 0 0 0 0 0 0 0 0 0 0 0 0 0 0 0 0 0 0 0 0 0
0 0 0 0 0 0 0 0 0 0 0 0 0 0 0 0 0 0 0 0 0 0 0 0 0 0 0 0 0 0 0 0 0 0 0 0 0 0 0 0 0 0 0 0 0 0 0 0 0
0 0 0 0 0 0 0 0 0 0 0 0 0 0 0 0 0 0 0 0 0 0 0 0 0 0 0 0 0 0 0 0 0 0 0 0 0 0 0 0 0 0 0 0 0 0 0 0 0
0 0 0 0 0 0 0 0 0 0 0 0 0 0 0 0 0 0 0 0 0 0 0 0 0 0 0 0 0 0 0 0 0 0 0 0 0 0 0 0 0 0 0 0 0 0 0 0 0
0 0 0 0 0 0 0 0 0 0 0 0 0 0 0 0 0 0 0 0 0 0 0 0 0 0 0 0 0 0 0 0 0 0 0 0 0 0 0 0 0 0 0 0 0 0 0 0 0
0 0 0 0 0 0 0 0 0 0 0 0 0 0 0 0 0 0 0 0 0 0 0 0 0 0 0 0 0 0 0 0 0 0 0 0 0 0 0 0 0 0 0 0 0 0 0 0 0
0 0 0 0 0 0 0 0 0 0 0 0 0 0 0 0 0 0 0 0 0 0 0 0 0 0 0 0 0 0 0 0 0 0 0 0 0 0 0 0 0 0 0 0 0 0 0 0 0
0 0 0 0 0 0 0 0 0 0 0 0 0 0 0 0 0 0 0 0 0 0 0 0 0 0 0 0 0 0 0 0 0 0 0 0 0 0 0 0 0 0 0 0 0 0 0 0 0
0 0 0 0 0 0 0 0 0 0 0 0 0 0 0 0 0 0 0 0 0 0 0 0 0 0 0 0 0 0 0 0 0 0 0 0 0 0 0 0 0 0 0 0 0 0 0 0 0
0 0 0 0 0 0 0 0 0 0 0 0 0 0 0 0 0 0 0 0 0 0 0 0 0 0 0 0 0 0 0 0 0 0 0 0 0 0 0 0 0 0 0 0 0 0 0 0 0
0 0 0 0 0 0 0 0 0 0 0 0 0 0 0 0 0 0 0 0 0 0 0 0 0 0 0 0 0 0 0 0 0 0 0 0 0 0 0 0 0 0 0 0 0 0 0 0 0
0 0 0 0 0 0 0 0 0 0 0 0 0 0 0 0 0 0 0 0 0 0 0 0 0 0 0 0 0 0 0 0 0 0 0 0 0 0 0 0 0 0 0 0 0 0 0 0 0
0 0 0 0 0 0 0 0 0 0 0 0 0 0 0 0 0 0 0 0 0 0 0 0 0 0 0 0 0 0 0 0 0 0 0 0 0 0 0 0 0 0 0 0 0 0 0 0 0
0 0 0 0 0 0 0 0 0 0 0 0 0 0 0 0 0 0 0 0 0 0 0 0 0 0 0 0 0 0 0 0 0 0 0 0 0 0 0 0 0 0 0 0 0 0 0 0 0
0 0 0 0 0 0 0 0 0 0 0 0 0 0 0 0 0 0 0 0 0 0 0 0 0 0 0 0 0 0 0 0 0 0 0 0 0 0 0 0 0 0 0 0 0 0 0 0 0
0 0 0 0 0 0 0 0 0 0 0 0 0 0 0 0 0 0 0 0 0 0 0 0 0 0 0 0 0 0 0 0 0 0 0 0 0 0 0 0 0 0 0 0 0 0 0 0 0
0 0 0 0 0 0 0 0 0 0 0 0 0 0 0 0 0 0 0 0 0 0 0 0 0 0 0 0 0 0 0 0 0 0 0 0 0 0 0 0 0 0 0 0 0 0 0 0 0
0 0 0 0 0 0 0 0 0 0 0 0 0 0 0 0 0 0 0 0 0 0 0 0 0 0 0 0 0 0 0 0 0 0 0 0 0 0 0 0 0 0 0 0 0 0 0 0 0
0 0 0 0 0 0 0 0 0 0 0 0 0 0 0 0 0 0 0 0 0 0 0 0 0 0 0 0 0 0 0 0 0 0 0 0 0 0 0 0 0 0 0 0 0 0 0 0 0
0 0 0 0 0 0 0 0 0 0 0 0 0 0 0 0 0 0 0 0 0 0 0 0 0 0 0 0 0 0 0 0 0 0 0 0 0 0 0 0 0 0 0 0 0 0 0 0 0
0 0 0 0 0 0 0 0 0 0 0 0 0 0 0 0 0 0 0 0 0 0 0 0 0 0 0 0 0 0 0 0 0 0 0 0 0 0 0 0 0 0 0 0 0 0 0 0 0
0 0 0 0 0 0 0 0 0 0 0 0 0 0 0 0 0 0 0 0 0 0 0 0 0 0 0 0 0 0 0 0 0 0 0 0 0 0 0 0 0 0 0 0 0 0 0 0 0
0 0 0 0 0 0 0 0 0 0 0 0 0 0 0 0 0 0 0 0 0 0 0 0 0 0 0 0 0 0 0 0 0 0 0 0 0 0 0 0 0 0 0 0 0 0 0 0 0
0 0 0 0 0 0 0 0 0 0 0 0 0 0 0 0 0 0 0 0 0 0 0 0 0 0 0 0 0 0 0 0 0 0 0 0 0 0 0 0 0 0 0 0 0 0 0 0 0
Height
5842 5843 5845 5847 5849 5850 5850 5850 5851 5853 5855 5858 5859 5861 5862 5862 5863 5864 5862 5860 5860 5860 5859 5859 5859 5858 5858 5857 5857 5856 5855 5855 5855 5855 5855 5855 5855 5854 5854 5853 5853 5852 5851 5851 5850 5849 5848 5847 5845
5839 5840 5843 5844 5845 5846 5846 5846 5847 5850 5853 5855 5856 5857 5858 5858 5858 5858 5858 5858 5858 5858 5857 5857 5857 5856 5856 5855 5855 5854 5853 5852 5852 5852 5852 5852 5852 5852 5851 5851 5850 5849 5849 5848 5847 5846 5845 5844 5843
5835 5837 5839 5840 5841 5842 5842 5843 5845 5847 5850 5852 5853 5854 5855 5854 5854 5854 5855 5855 5855 5856 5855 5855 5855 5854 5854 5853 5852 5852 5851 5850 5849 5849 5849 5849 5849 5849 5849 5848 5848 5847 5846 5845 5844 5843 5842 5841 5840
5831 5833 5835 5837 5837 5838 5839 5840 5842 5844 5847 5848 5849 5850 5850 5850 5850 5851 5851 5852 5853 5853 5853 5853 5853 5852 5851 5851 5850 5850 5849 5848 5847 5847 5846 5847 5847 5847 5846 5845 5845 5844 5843 5842 5841 5840 5839 5838 5836
5826 5829 5831 5832 5833 5834 5835 5837 5839 5841 5843 5845 5846 5846 5846 5846 5846 5847 5848 5849 5850 5851 5851 5851 5850 5850 5849 5848 5848 5847 5847 5846 5845 5844 5844 5844 5843 5843 5843 5842 5842 5841 5840 5838 5837 5836 5835 5834 5832
5821 5824 5826 5828 5829 5830 5832 5834 5836 5838 5840 5841 5842 5842 5841 5842 5843 5844 5845 5846 5847 5848 5848 5848 5848 5847 5847 5846 5846 5845 5844 5843 5842 5841 5840 5840 5840 5839 5839 5838 5838 5837 5836 5834 5833 5832 5831 5829 5828
5816 5818 5821 5823 5824 5825 5828 5830 5833 5835 5836 5837 5838 5838 5837 5838 5839 5840 5842 5843 5844 5845 5845 5845 5845 5845 5844 5843 5843 5842 5841 5840 5839 5838 5837 5837 5836 5835 5835 5834 5833 5833 5832 5830 5829 5828 5826 5825 5823
5809 5813 5816 5818 5819 5821 5824 5826 5829 5830 5832 5833 5833 5833 5833 5834 5835 5837 5838 5839 5841 5842 5843 5843 5843 5842 5841 5840 5840 5839 5838 5837 5836 5835 5834 5833 5833 5832 5831 5830 5829 5828 5827 5826 5824 5823 5821 5819 5817
5802 5807 5811 5813 5813 5816 5819 5822 5825 5826 5827 5828 5829 5829 5830 5831 5832 5833 5834 5836 5837 5839 5840 5840 5840 5839 5838 5837 5836 5835 5834 5833 5832 5831 5830 5829 5829 5828 5827 5826 5825 5824 5823 5821 5819 5817 5815 5813 5811
5794 5800 5807 5808 5808 5811 5815 5818 5820 5822 5823 5824 5825 5825 5826 5827 5828 5830 5831 5833 5835 5836 5837 5837 5836 5835 5835 5834 5832 5831 5830 5829 5828 5826 5826 5825 5824 5823 5822 5821 5820 5819 5817 5815 5813 5811 5808 5805 5803
5786 5795 5801 5800 5802 5806 5809 5813 5816 5818 5819 5820 5820 5821 5822 5823 5824 5826 5828 5830 5831 5832 5833 5833 5833 5832 5831 5830 5829 5827 5826 5824 5823 5821 5820 5819 5819 5818 5817 5816 5814 5812 5810 5808 5806 5803 5800 5797 5794
5782 5790 5793 5795 5797 5800 5804 5808 5812 5814 5814 5814 5816 5817 5818 5820 5821 5823 5824 5826 5827 5828 5829 5829 5829 5828 5827 5826 5825 5823 5822 5820 5818 5817 5815 5814 5814 5813 5812 5810 5808 5805 5803 5800 5797 5794 5791 5788 5785
5776 5783 5786 5788 5791 5795 5799 5803 5807 5809 5808 5810 5812 5813 5815 5817 5818 5820 5821 5822 5823 5824 5825 5825 5825 5824 5823 5822 5821 5819 5817 5815 5814 5812 5811 5809 5808 5807 5805 5803 5800 5797 5795 5792 5789 5785 5782 5779 5776
5770 5775 5778 5781 5785 5790 5794 5798 5801 5802 5804 5806 5808 5810 5812 5813 5815 5816 5817 5818 5819 5820 5821 5821 5821 5820 5819 5817 5816 5815 5813 5811 5809 5808 5806 5804 5802 5800 5798 5795 5792 5789 5786 5783 5780 5777 5774 5771 5768
5760 5766 5770 5775 5780 5785 5790 5794 5795 5796 5799 5802 5804 5806 5807 5809 5810 5812 5813 5814 5815 5816 5817 5817 5816 5815 5814 5812 5811 5810 5808 5806 5805 5803 5801 5799 5796 5794 5791 5788 5784 5781 5778 5775 5772 5769 5766 5763 5760
5751 5756 5762 5770 5775 5779 5785 5789 5788 5791 5795 5798 5800 5802 5803 5805 5806 5807 5809 5810 5811 5812 5812 5812 5812 5810 5808 5807 5805 5804 5803 5801 5799 5797 5795 5792 5790 5787 5784 5781 5777 5774 5770 5767 5764 5761 5758 5755 5752
5740 5748 5758 5765 5770 5774 5779 5784 5783 5787 5791 5794 5796 5797 5799 5800 5802 5803 5805 5806 5807 5807 5807 5807 5806 5805 5803 5801 5800 5798 5797 5795 5793 5791 5788 5786 5783 5780 5777 5774 5770 5767 5763 5760 5756 5753 5750 5746 5743
5733 5744 5754 5760 5764 5769 5774 5778 5778 5783 5787 5790 5792 5793 5794 5796 5797 5799 5800 5801 5802 5802 5802 5801 5800 5799 5797 5795 5794 5792 5791 5789 5787 5784 5781 5778 5775 5772 5769 5766 5762 5759 5755 5752 5748 5744 5741 5737 5733
5731 5742 5749 5754 5757 5763 5768 5773 5775 5778 5783 5785 5787 5788 5790 5791 5793 5794 5795 5796 5796 5796 5796 5795 5794 5793 5791 5790 5788 5787 5785 5783 5780 5777 5774 5771 5767 5764 5761 5758 5754 5750 5747 5743 5739 5735 5731 5726 5722
5726 5734 5742 5746 5751 5757 5764 5769 5771 5774 5778 5780 5782 5784 5785 5787 5788 5790 5790 5791 5791 5790 5790 5789 5788 5787 5786 5784 5783 5781 5779 5776 5773 5770 5767 5763 5760 5756 5753 5749 5745 5742 5737 5733 5729 5725 5721 5716 5710
5719 5729 5736 5741 5746 5753 5760 5765 5767 5770 5773 5775 5777 5779 5781 5782 5784 5785 5785 5785 5785 5785 5784 5783 5782 5781 5780 5778 5777 5774 5772 5769 5766 5763 5759 5756 5752 5749 5745 5741 5737 5733 5728 5723 5718 5713 5708 5704 5698
5716 5725 5730 5735 5741 5748 5755 5760 5763 5765 5767 5770 5773 5774 5776 5778 5779 5779 5780 5779 5779 5779 5778 5778 5777 5775 5774 5772 5770 5768 5765 5762 5759 5755 5752 5748 5744 5740 5736 5732 5727 5723 5718 5712 5707 5701 5695 5689 5683
5713 5719 5724 5730 5736 5744 5750 5755 5759 5760 5762 5765 5768 5770 5771 5773 5774 5774 5774 5774 5773 5773 5773 5772 5771 5770 5768 5766 5763 5760 5757 5754 5751 5747 5744 5740 5736 5731 5727 5722 5717 5712 5706 5700 5694 5687 5679 5672 5664
5706 5712 5718 5724 5731 5740 5745 5750 5754 5754 5756 5759 5762 5764 5766 5767 5768 5768 5768 5768 5768 5767 5767 5767 5765 5763 5761 5758 5756 5753 5750 5746 5743 5739 5735 5731 5726 5722 5717 5711 5706 5700 5694 5687 5679 5672 5664 5655 5646
5699 5706 5714 5720 5726 5735 5740 5744 5749 5749 5751 5754 5757 5759 5760 5761 5762 5762 5762 5762 5762 5762 5761 5760 5758 5756 5753 5751 5748 5745 5742 5738 5734 5730 5726 5721 5717 5712 5706 5700 5694 5687 5680 5672 5664 5656 5647 5637 5627
5694 5703 5711 5717 5723 5731 5735 5739 5743 5745 5746 5749 5751 5753 5754 5755 5756 5755 5755 5755 5755 5755 5754 5753 5751 5748 5746 5743 5740 5737 5733 5729 5725 5721 5716 5712 5707 5701 5695 5689 5682 5674 5666 5657 5648 5638 5628 5618 5607
5692 5698 5706 5714 5720 5726 5730 5734 5737 5739 5741 5744 5746 5747 5748 5749 5749 5749 5749 5749 5748 5748 5746 5745 5743 5740 5738 5735 5732 5728 5724 5720 5716 5711 5706 5701 5696 5690 5683 5675 5667 5659 5650 5640 5630 5620 5609 5598 5586
5689 5696 5702 5709 5715 5720 5725 5729 5732 5734 5736 5738 5740 5741 5742 5743 5743 5742 5742 5742 5741 5740 5739 5737 5735 5732 5729 5726 5723 5719 5715 5711 5706 5701 5696 5690 5683 5676 5668 5660 5651 5641 5631 5621 5611 5600 5588 5577 5564
5686 5692 5698 5705 5710 5717 5721 5727 5727 5729 5731 5733 5734 5735 5736 5736 5736 5736 5735 5734 5734 5732 5731 5729 5727 5724 5721 5717 5714 5710 5705 5701 5696 5690 5683 5676 5669 5661 5652 5643 5633 5623 5613 5602 5591 5580 5568 5555 5542
5683 5690 5696 5702 5707 5712 5716 5723 5721 5723 5725 5727 5728 5729 5729 5730 5730 5729 5729 5728 5727 5725 5723 5721 5718 5715 5712 5708 5704 5700 5695 5690 5684 5677 5670 5662 5654 5645 5635 5625 5615 5604 5593 5582 5571 5559 5547 5534 5520
Wind_Speed
23 23 23 21 20 20 21 24 26 26 24 21 18 16 15 15 16 16 16 17 17 17 16 15 15 15 15 14 14 14 14 14 15 16 16 15 15 14 13 14 14 15 15 15 15 15 16 17 18
24 23 23 22 20 20 22 25 26 23 21 19 17 15 15 15 17 17 18 18 16 14 13 13 13 14 14 14 14 14 14 14 14 16 17 17 16 15 14 14 15 16 16 16 17 17 18 18 19
25 24 24 22 21 22 25 26 24 21 18 17 15 14 14 16 17 18 18 18 16 13 12 12 12 13 14 15 15 15 15 14 14 16 17 18 17 16 16 16 17 18 18 18 18 18 19 20 20
27 25 25 24 23 25 27 26 23 20 18 16 14 13 14 16 17 18 18 17 15 13 12 12 12 13 15 16 16 16 15 14 14 16 17 19 19 18 18 18 19 20 20 19 19 19 20 20 21
30 28 26 26 25 27 28 26 23 20 18 17 15 13 15 17 18 18 17 15 13 12 12 12 13 14 15 16 17 17 17 16 15 15 17 20 21 21 21 21 22 22 21 20 19 19 20 20 21
32 30 28 28 28 29 29 27 24 21 20 18 16 15 17 17 18 18 17 15 14 13 13 12 13 14 14 15 16 17 17 16 16 16 17 19 21 23 23 23 23 23 21 20 19 20 21 22 23
35 33 30 29 30 30 29 27 25 22 21 19 17 17 17 17 17 18 17 16 15 14 13 13 13 14 15 15 16 17 18 18 17 17 18 18 19 21 22 23 23 23 22 22 22 24 25 26 27
38 35 32 30 32 31 28 26 24 22 21 19 18 17 16 16 16 17 17 17 16 15 14 13 13 14 15 16 16 17 18 19 20 20 20 20 20 21 21 22 23 24 25 26 27 29 30 32 33
41 38 34 31 33 32 28 26 23 22 21 19 16 15 15 15 16 17 17 17 16 15 14 14 14 14 15 16 17 18 20 21 22 23 23 23 24 24 24 24 25 26 28 29 31 33 35 36 37
44 39 33 33 34 33 29 26 23 22 20 18 16 15 16 16 17 17 17 17 16 15 15 14 14 14 15 16 17 18 20 22 23 24 25 26 27 27 27 27 28 29 30 32 34 37 38 40 41
46 39 34 36 35 32 30 28 25 21 19 19 18 18 17 18 18 17 17 17 17 17 16 16 15 15 16 16 17 19 20 22 24 25 26 27 28 28 29 29 30 31 33 35 37 39 41 42 42
46 39 37 36 35 32 30 28 25 21 20 20 19 19 18 17 18 18 18 18 19 19 18 17 17 17 17 18 19 20 21 23 24 25 26 27 28 28 30 31 32 34 36 38 40 41 42 42 43
45 39 38 38 36 32 30 28 24 22 23 20 20 21 19 17 18 19 20 21 21 20 19 19 19 19 20 21 22 22 23 23 24 24 24 25 26 28 30 32 34 36 38 40 41 41 41 41 41
45 42 41 40 37 33 30 27 25 25 24 21 21 21 19 18 19 20 22 23 23 22 21 20 21 21 22 23 24 24 24 24 24 24 24 25 27 29 31 34 36 37 39 40 40 39 38 37 38
48 46 45 41 38 33 30 27 27 28 24 22 20 20 21 20 21 22 22 23 23 22 22 21 22 22 24 25 25 25 25 25 25 24 25 27 29 31 33 35 37 37 38 38 38 37 37 37 38
51 50 47 40 37 34 31 27 31 28 24 22 20 20 21 22 22 22 22 23 23 22 22 22 23 24 25 26 27 27 26 26 26 27 28 30 31 33 35 36 36 37 37 38 38 39 39 40 41
55 52 45 39 37 35 32 27 32 27 24 22 20 20 22 23 23 23 22 22 23 23 23 24 25 26 26 27 28 28 28 28 29 30 32 33 35 36 37 37 37 38 38 39 40 41 43 44 45
57 50 42 39 37 36 33 29 31 26 23 22 21 21 23 24 24 24 23 23 24 24 25 25 26 27 27 27 28 29 30 30 31 33 35 37 38 39 39 39 39 40 41 41 42 44 45 47 48
52 45 40 38 38 37 34 30 30 26 22 22 22 22 24 25 25 25 24 24 25 26 26 27 27 26 26 27 28 29 30 32 34 36 37 39 40 40 41 41 41 42 43 43 45 46 47 49 51
49 45 42 41 40 37 33 29 30 27 23 23 23 23 23 24 25 25 25 25 26 27 27 27 26 25 25 26 28 30 32 34 36 37 38 39 40 41 41 42 42 43 44 45 46 48 49 51 54
49 45 42 40 38 36 32 29 29 27 25 24 24 24 24 24 24 25 25 26 27 27 27 26 25 25 26 28 29 31 33 35 36 37 38 40 41 41 42 43 44 44 46 47 49 51 54 56 59
46 43 41 40 38 36 33 29 27 27 26 26 26 25 25 24 24 25 26 27 27 26 26 25 25 26 28 29 31 33 34 35 36 38 39 40 41 42 43 44 45 46 48 50 53 56 59 62 65
43 43 42 40 38 35 32 29 26 28 28 27 27 26 26 25 26 26 27 27 26 26 26 27 27 29 30 31 33 34 35 36 37 39 40 41 42 43 44 46 47 49 52 55 59 62 66 69 72
44 44 42 40 38 35 32 29 27 29 28 28 27 27 27 27 27 27 27 28 28 28 28 28 29 30 31 33 34 34 36 37 39 40 41 43 44 45 47 49 51 54 58 61 65 68 71 73 76
46 45 42 40 38 34 31 30 29 29 29 28 27 27 27 27 28 28 29 29 28 28 29 29 30 31 32 33 34 35 37 39 40 41 43 44 46 47 50 53 56 60 64 67 70 73 75 77 79
45 44 42 40 37 33 31 30 30 29 29 27 27 27 27 27 28 29 30 29 29 28 29 30 31 32 33 34 35 37 38 40 41 43 44 46 48 50 54 58 62 65 69 72 74 76 78 80 82
42 41 39 37 35 32 31 30 29 28 28 27 26 26 26 27 28 30 30 29 29 29 29 30 31 32 33 35 36 38 39 41 42 44 46 49 52 56 60 63 67 70 72 74 77 79 81 83 85
40 38 38 36 34 33 31 30 30 28 27 27 26 25 25 26 27 28 28 27 28 28 29 30 31 32 34 36 37 39 40 42 44 46 50 53 57 61 65 68 71 73 75 77 80 82 84 86 88
40 39 37 35 34 32 29 28 29 28 27 27 26 25 26 26 27 27 27 27 27 28 29 30 32 34 35 37 38 40 42 44 47 51 55 59 62 66 69 71 73 75 78 80 82 84 86 89 91
39 37 35 34 32 30 28 27 27 27 26 26 26 26 26 27 27 27 26 26 27 29 30 32 33 35 36 38 40 42 45 49 53 56 60 63 67 69 71 74 76 78 81 83 85 86 89 91 93
Wind_Direction
249 247 245 245 245 239 231 230 232 234 237 241 247 251 252 253 251 251 253 255 259 263 267 271 275 277 276 274 271 269 268 263 255 249 248 249 252 253 254 256 258 260 262 268 275 281 287 290 292
246 245 243 242 241 231 224 226 230 234 238 243 248 252 253 253 250 248 250 255 260 263 269 272 275 277 277 275 274 274 275 269 257 248 246 248 252 255 257 260 264 266 267 271 278 283 287 288 288
244 243 241 237 234 225 222 225 229 233 237 242 247 251 255 253 248 245 250 254 258 260 267 273 276 277 279 279 277 276 276 272 259 250 247 249 253 257 261 267 272 273 273 274 279 284 287 287 286
243 241 238 234 230 225 223 226 229 233 238 242 249 256 254 251 245 244 248 253 255 258 266 272 276 278 280 281 279 277 277 275 265 255 253 254 257 262 267 272 276 277 276 277 280 284 288 288 286
241 239 237 233 229 226 225 227 230 236 241 247 256 262 254 246 242 242 246 249 250 256 265 270 275 278 281 281 279 278 277 276 271 265 262 261 263 267 271 275 278 280 282 284 285 288 290 288 286
240 237 236 232 229 228 228 228 231 238 245 252 259 261 253 244 239 240 242 243 244 252 261 267 274 280 282 282 279 277 276 277 276 274 271 270 270 271 274 276 279 282 285 286 287 288 289 288 287
239 236 234 232 230 230 229 229 231 237 246 253 258 256 249 240 235 235 237 238 241 248 257 266 275 281 283 283 281 278 276 276 278 278 277 276 277 276 276 277 279 281 283 285 286 287 288 288 287
237 235 232 231 232 231 230 229 230 234 244 253 254 249 240 232 229 229 233 236 240 247 254 266 276 281 282 283 282 280 277 275 276 277 278 278 278 278 278 278 280 282 284 285 286 287 288 289 288
235 233 230 230 232 232 230 229 229 233 242 248 246 238 227 222 221 224 230 235 240 245 254 264 273 279 281 282 282 281 279 277 276 275 276 277 278 278 278 279 281 283 284 286 287 288 289 289 288
232 231 228 230 232 233 232 230 228 230 238 240 233 222 215 215 218 224 230 235 241 246 253 260 268 276 280 283 284 283 281 280 278 277 276 276 277 278 279 280 282 283 284 285 287 288 288 288 288
229 228 226 230 231 232 232 231 228 228 233 231 224 216 211 213 218 225 230 234 238 243 249 256 265 274 282 286 289 289 287 284 281 279 277 277 277 278 279 280 282 283 285 286 286 287 288 287 287
227 225 225 229 231 230 231 230 228 227 229 227 221 217 214 216 221 227 231 233 236 240 246 254 264 273 282 288 291 291 289 287 285 283 281 280 280 281 282 282 283 284 286 287 287 288 288 287 287
226 223 224 227 229 228 229 230 227 226 227 226 223 219 217 220 227 231 233 234 236 240 246 253 263 273 282 288 290 291 290 290 289 288 287 285 285 285 284 284 284 285 286 287 289 289 289 288 287
223 221 222 225 227 226 227 228 226 227 227 226 223 220 219 223 229 233 234 235 236 241 247 255 265 275 282 285 288 290 290 291 290 290 289 288 287 286 286 285 286 287 288 289 290 290 290 290 290
220 219 220 222 224 224 224 224 226 227 227 227 224 220 219 223 229 232 233 234 237 242 250 258 268 276 282 284 286 287 287 288 287 286 286 286 287 288 288 289 290 291 292 292 292 292 291 291 290
218 218 218 219 222 222 222 218 227 226 227 228 226 221 219 222 227 230 232 234 239 245 254 263 271 277 281 283 282 282 283 283 284 285 286 288 290 292 293 293 293 294 294 294 294 293 293 292 292
215 216 216 217 220 221 220 215 228 227 226 228 227 223 220 221 225 229 233 237 244 252 260 267 272 276 278 280 280 280 280 281 283 286 289 292 294 295 295 295 295 294 294 294 294 294 294 294 294
212 214 214 216 220 221 219 214 228 227 224 227 228 226 223 223 226 230 235 242 250 258 265 271 274 275 277 278 279 279 280 283 286 288 291 294 295 296 296 296 296 296 296 296 296 297 297 297 297
212 212 213 215 219 220 218 213 225 230 225 228 230 228 226 225 228 233 239 247 255 262 268 271 274 276 277 278 279 281 283 285 288 290 292 294 295 296 297 298 299 300 300 300 300 300 300 300 300
209 208 209 214 218 219 217 213 223 231 228 229 232 231 228 227 229 235 243 250 258 264 269 271 273 275 277 278 280 282 284 287 289 291 293 295 296 298 299 301 301 301 301 301 301 301 301 301 301
207 206 209 214 217 218 217 215 221 229 231 231 232 232 231 231 234 240 247 255 261 265 268 269 271 274 276 278 281 284 286 288 290 292 294 295 297 299 300 301 301 301 301 301 301 301 301 301 301
205 205 209 214 216 216 216 216 222 228 232 232 233 234 235 236 240 246 253 258 262 265 266 268 270 273 276 280 283 285 287 289 291 293 295 296 298 299 299 299 300 300 300 301 301 302 302 302 302
203 205 210 214 216 216 216 218 222 229 232 233 234 236 238 240 244 250 256 260 263 266 267 270 272 276 279 282 284 286 289 291 292 294 295 296 297 297 297 297 298 299 300 302 303 304 304 304 303
201 206 210 214 217 216 215 218 216 229 233 235 236 238 240 243 247 253 258 262 265 268 270 273 276 278 281 283 286 288 290 292 293 293 294 294 295 295 296 298 299 301 302 304 304 305 304 304 303
201 206 209 213 216 215 215 219 216 225 232 237 239 241 243 245 249 254 259 263 266 270 273 276 278 280 283 285 288 290 291 292 293 293 294 294 295 297 298 300 302 303 304 305 305 305 304 304 303
202 206 210 213 215 214 216 220 221 224 230 236 240 243 246 249 252 255 259 262 266 270 273 276 278 281 284 287 289 291 292 293 293 294 294 296 297 299 300 302 303 304 304 305 305 305 305 304 304
204 207 211 215 216 215 218 221 224 226 231 236 240 245 248 252 255 258 261 265 269 272 275 278 281 284 287 289 291 293 293 293 294 295 296 298 299 301 303 304 304 305 305 305 306 306 305 305 305
206 209 213 214 214 216 217 220 225 229 234 239 243 248 252 256 259 262 265 268 271 274 277 280 284 287 290 292 293 294 294 295 296 297 299 301 303 304 305 305 305 306 306 306 306 306 306 306 307
207 209 212 214 215 216 218 221 226 232 237 242 247 252 255 259 262 264 266 269 273 277 281 285 288 290 292 293 294 294 295 297 299 300 302 304 305 306 306 306 306 307 307 307 307 308 308 308 308
210 213 215 217 218 219 221 224 229 235 241 246 250 254 258 261 264 265 267 271 276 280 285 288 291 292 293 294 295 296 298 300 302 304 305 306 306 307 307 307 307 307 307 308 309 309 309 309 309